Wind_Speed
24 24 24 22 21 20 21 24 26 26 24 22 19 17 16 16 17 18 18 19 18 17 16 16 15 15 14 14 14 15 15 15 15 17 17 16 16 16 15 14 15 15 16 16 16 16 16 16 18
25 24 24 23 21 20 22 24 24 22 21 20 18 17 16 17 18 19 19 19 18 15 13 13 13 14 14 14 15 15 15 15 15 16 18 17 17 16 16 15 16 17 18 17 17 17 17 18 18
25 25 24 23 22 23 24 24 22 19 18 17 16 15 16 17 19 19 19 19 17 13 11 12 13 14 15 15 16 15 15 14 14 15 17 18 18 17 17 17 18 19 19 18 18 19 19 19 19
27 26 26 25 25 25 25 24 21 18 16 16 14 14 16 18 19 19 18 17 14 11 11 12 13 14 15 15 16 16 15 14 14 15 17 18 19 18 18 18 20 21 21 20 19 19 20 20 20
29 28 28 27 27 28 27 25 21 19 17 16 14 13 17 19 20 20 18 17 14 11 11 12 13 14 15 15 16 17 16 15 14 15 17 19 20 21 21 21 22 22 21 20 19 19 20 20 20
32 30 30 29 29 30 30 27 23 21 19 17 15 15 19 19 20 20 18 17 15 13 12 11 12 13 14 15 16 17 17 17 16 16 17 19 21 22 23 23 23 23 22 20 20 21 21 22 22
35 33 32 31 31 32 31 28 25 22 20 18 16 16 18 18 19 19 18 18 16 14 13 11 12 12 14 15 16 17 18 19 19 19 19 19 20 22 23 24 24 24 23 23 24 25 26 26 27
38 35 34 33 34 33 30 27 25 23 21 18 17 16 15 15 16 17 18 18 17 15 13 12 11 12 13 15 16 17 19 20 22 23 23 22 22 22 23 23 25 26 26 27 28 29 31 31 32
41 38 35 33 35 34 30 27 24 22 20 18 16 15 15 15 15 17 18 18 17 16 15 14 13 12 12 14 16 18 20 21 23 25 26 26 26 26 26 26 26 27 28 30 32 34 35 36 37
44 40 34 34 37 35 31 27 24 22 20 17 16 16 17 16 16 16 17 17 17 17 17 16 15 13 12 14 16 17 19 21 23 25 26 27 28 28 28 28 29 29 31 33 35 37 39 40 41
46 40 35 37 37 35 32 28 25 22 19 18 18 19 20 19 17 17 16 17 18 18 19 18 18 16 15 17 17 18 19 20 21 23 24 25 27 27 28 29 30 31 33 35 38 40 42 43 44
46 39 38 38 37 34 32 29 25 20 20 20 20 22 22 19 17 17 18 18 19 20 20 20 20 19 19 20 20 21 21 21 21 21 22 23 25 26 27 29 31 33 35 38 41 43 44 44 44
46 40 39 39 39 34 32 29 24 22 24 21 20 22 23 19 18 18 19 20 21 22 21 22 22 21 21 22 22 23 23 23 23 22 23 24 25 27 29 32 34 36 38 40 41 41 41 42 42
47 43 43 42 39 35 31 28 25 26 24 20 20 22 22 21 19 19 20 21 22 22 22 22 22 23 23 23 23 24 25 25 25 25 26 27 29 31 33 35 36 37 37 37 36 35 35 35 36
50 47 46 43 39 35 32 28 28 28 24 21 19 20 22 22 21 21 20 21 21 22 22 22 23 23 24 24 25 26 26 27 27 27 29 30 32 34 35 36 36 36 35 35 34 34 34 35 36
53 51 48 41 38 35 32 27 32 29 25 21 19 19 22 23 22 21 20 20 21 22 22 23 24 25 26 26 26 27 28 28 29 30 32 34 35 36 36 36 36 35 35 35 35 36 37 38 40
57 54 46 39 37 36 33 28 33 29 25 22 20 21 23 23 23 22 22 22 23 23 24 25 26 28 28 28 28 29 29 30 31 34 36 37 37 37 37 36 36 36 36 37 38 39 41 42 43
59 51 43 39 37 37 34 30 32 28 25 23 21 22 24 25 24 23 23 24 25 25 27 28 29 29 28 28 28 29 30 31 34 36 38 38 38 37 37 37 37 38 39 39 40 42 43 45 46
53 45 41 38 39 38 35 31 31 28 24 23 23 23 25 26 26 25 25 26 27 28 29 29 28 26 26 26 28 29 31 33 36 37 38 38 38 38 38 39 39 40 41 42 43 44 45 47 49
51 46 43 41 39 37 35 30 30 29 25 25 24 25 26 26 26 26 27 28 29 29 28 26 25 24 25 27 28 31 33 35 37 37 37 38 39 39 40 40 41 42 43 44 45 47 49 51 55
51 46 42 40 37 35 33 30 29 29 27 26 25 25 25 25 25 26 27 29 28 27 25 24 24 25 26 28 30 32 33 35 36 37 38 39 40 41 42 42 42 43 44 46 48 51 54 56 59
47 44 41 39 37 36 34 30 28 29 27 26 27 26 26 25 25 26 27 28 27 25 24 24 25 27 28 30 32 33 34 35 36 37 38 40 41 42 42 43 43 45 47 50 53 56 60 63 66
44 42 40 38 36 34 31 29 27 29 28 27 27 26 26 26 25 26 27 27 26 25 25 26 28 29 31 32 33 34 35 36 38 39 40 41 42 42 43 44 46 49 52 55 59 62 66 69 71
45 43 40 36 34 32 30 29 27 30 28 27 27 27 26 26 26 26 27 27 26 26 27 28 30 31 32 33 34 35 36 38 39 40 41 41 42 43 45 47 50 54 57 61 65 67 70 72 75
46 44 40 37 35 31 30 29 28 29 28 27 27 26 26 26 26 26 27 27 27 28 29 30 31 31 32 34 35 36 37 39 40 40 41 42 44 46 49 52 56 60 64 67 69 71 73 76 79
44 42 38 36 33 30 29 28 29 29 28 26 26 26 25 26 27 28 28 29 29 30 30 30 31 32 33 34 36 37 38 38 39 40 42 44 47 50 54 58 62 65 68 70 72 74 77 79 82
42 40 37 34 31 29 29 28 27 27 27 26 25 25 25 26 27 29 29 30 30 30 31 31 31 32 34 35 36 36 36 37 39 41 45 48 52 56 60 64 67 69 70 72 74 77 80 83 86
40 37 35 33 31 29 28 28 28 27 26 26 24 24 24 25 27 28 29 29 30 30 31 31 32 33 35 35 35 35 37 39 43 47 51 55 58 62 65 67 69 71 73 75 78 81 84 87 90
39 37 36 33 31 29 27 26 27 27 26 25 24 24 25 25 26 28 28 28 29 30 30 32 33 34 34 34 35 38 41 45 49 53 56 60 63 65 68 70 72 74 76 79 82 85 88 91 94
36 35 34 32 29 26 25 24 24 24 24 24 24 25 25 26 27 27 28 28 29 30 32 33 33 33 35 36 39 43 47 51 55 58 61 64 66 69 71 73 75 77 80 82 85 88 91 94 96
Wind_Direction
249 246 246 247 243 237 233 233 235 237 240 244 247 249 250 249 248 248 251 254 259 264 268 270 272 274 274 273 272 270 269 265 261 252 248 250 254 254 252 252 254 256 259 264 273 280 285 288 291
248 245 242 243 239 231 227 229 233 238 243 246 248 248 250 251 248 246 248 255 261 266 272 275 274 273 274 274 274 277 277 273 265 252 246 249 254 257 258 260 261 262 263 267 275 280 284 286 287
246 243 239 238 234 227 225 228 233 237 241 245 248 248 251 251 248 245 250 255 261 266 273 275 276 275 276 277 277 279 282 278 266 252 246 249 254 259 264 269 271 270 268 270 275 279 282 284 285
244 241 237 234 230 226 226 228 231 235 239 244 250 254 251 248 244 244 250 254 258 264 270 273 276 276 277 279 278 278 281 280 269 257 252 252 256 262 269 273 275 275 274 274 278 282 284 285 284
242 240 236 233 231 229 227 228 232 236 241 249 257 261 253 244 241 243 249 253 254 260 267 273 276 278 279 280 279 277 278 278 275 267 261 259 261 265 269 273 277 279 281 282 284 286 285 284 284
241 238 236 233 231 231 230 229 232 238 245 252 260 258 251 243 238 240 248 251 248 254 262 270 277 281 282 281 279 278 278 277 276 275 272 269 268 269 271 275 278 281 283 285 285 284 283 282 282
240 236 234 232 233 232 231 231 232 237 245 253 258 253 246 239 236 237 244 247 245 249 257 269 281 286 285 283 280 279 278 277 277 277 277 276 275 274 274 275 277 278 279 281 282 282 281 281 282
239 236 233 231 233 234 232 231 231 235 243 252 253 245 234 228 230 233 239 242 243 247 256 269 282 287 287 284 282 280 277 276 275 275 275 276 276 276 276 277 278 278 280 281 282 283 283 284 285
237 234 231 231 233 235 233 231 229 231 239 245 244 232 219 218 224 230 235 239 242 246 255 266 277 284 287 289 287 284 280 277 276 274 274 274 275 276 277 278 280 282 283 284 284 284 284 284 285
234 233 230 231 233 234 233 230 227 228 233 236 232 219 213 215 222 230 235 240 244 246 252 259 269 277 288 296 297 294 288 284 280 277 275 275 275 277 279 280 281 282 282 283 284 284 284 283 284
231 230 228 230 232 232 233 230 227 225 228 230 225 215 210 213 220 228 235 238 241 244 248 254 263 271 284 295 299 299 295 290 286 282 279 278 277 279 280 281 281 281 282 282 282 282 282 283 284
230 228 227 230 231 230 231 230 226 224 226 227 223 218 215 215 221 229 235 238 240 243 247 252 259 270 281 289 293 296 296 295 291 288 285 283 283 283 283 282 282 283 284 283 283 282 283 283 284
227 225 226 228 229 228 229 229 225 222 226 227 224 222 219 220 226 233 238 239 240 243 247 252 260 269 277 283 289 291 292 294 294 292 290 288 286 286 286 285 284 285 285 285 284 284 284 283 283
224 223 224 226 226 225 226 227 225 227 228 230 229 225 221 222 228 235 238 238 239 243 249 256 261 266 273 279 284 287 288 289 290 290 289 288 287 286 286 286 285 286 287 288 287 287 287 287 287
220 220 221 223 224 224 224 223 227 229 229 231 231 224 219 220 227 233 235 236 239 244 251 258 264 268 273 278 281 284 284 284 286 289 291 291 290 289 289 289 288 289 289 289 289 289 289 289 289
218 219 219 219 221 222 223 217 229 229 229 232 230 221 216 216 223 229 233 237 243 249 256 263 268 271 275 277 279 280 280 282 287 291 295 295 295 294 293 291 291 290 290 290 290 291 291 292 292
215 216 216 217 219 221 221 214 230 229 229 232 230 223 217 217 222 228 234 242 249 256 262 267 271 274 275 275 276 276 278 283 288 293 296 297 296 295 294 292 292 291 291 291 292 293 294 295 295
212 213 214 215 219 220 218 214 229 231 229 231 230 225 221 221 225 231 239 247 254 261 266 271 272 273 274 274 275 275 279 285 290 293 296 297 296 295 294 293 293 293 294 295 296 297 297 297 297
211 211 212 213 218 219 217 214 226 234 230 231 231 227 223 223 227 235 244 252 259 265 269 272 272 272 274 275 276 279 283 287 291 293 295 295 295 295 296 297 298 299 299 299 299 299 299 299 299
208 207 209 213 217 218 217 216 225 235 232 232 233 228 224 224 230 239 249 257 263 266 268 269 270 272 273 274 277 281 284 288 291 294 295 296 297 298 299 300 301 301 300 300 299 299 299 299 300
205 205 208 215 217 218 217 217 224 234 234 232 233 229 225 227 235 245 254 260 263 265 266 267 269 272 274 276 279 283 286 289 292 295 296 298 299 300 300 300 300 299 299 298 298 299 299 299 299
202 203 209 214 216 217 217 219 225 233 235 231 230 228 228 233 241 251 257 260 262 264 267 269 271 274 276 279 282 286 289 291 293 295 296 297 298 298 298 298 297 297 297 297 298 299 299 300 300
200 204 210 214 217 216 217 220 224 233 234 231 228 228 232 239 247 253 257 260 263 266 270 273 275 278 280 283 285 288 290 291 293 294 295 296 296 295 294 294 295 296 298 300 301 302 302 302 302
199 205 209 214 216 217 217 221 217 230 232 230 229 231 235 241 248 254 258 262 266 270 274 276 278 280 282 285 286 288 290 291 292 294 294 294 294 294 295 296 298 300 302 303 304 304 303 303 302
198 204 208 213 215 215 217 221 216 224 229 231 232 234 238 243 248 254 259 264 269 272 275 277 279 282 284 286 288 290 291 293 294 295 295 295 295 297 299 301 303 304 305 305 305 304 304 303 302
199 204 209 212 215 216 218 221 218 220 226 230 233 236 240 244 249 254 259 264 268 272 274 277 279 282 285 288 290 292 294 295 294 294 295 297 299 301 303 304 305 305 305 305 305 304 304 303 303
201 205 209 213 214 216 218 221 222 221 226 230 234 237 242 247 252 258 262 266 270 273 276 279 282 285 288 291 293 294 295 294 295 296 299 301 302 304 305 305 305 305 305 305 305 305 304 304 304
202 204 208 211 212 215 215 218 222 225 228 233 236 241 246 251 256 261 265 269 272 276 280 283 286 289 292 294 295 295 295 296 298 300 302 304 305 306 306 305 306 306 307 306 305 305 306 306 307
200 204 208 211 212 212 214 218 224 229 233 238 243 247 251 256 260 264 267 271 275 280 284 287 290 293 294 295 295 295 297 299 301 304 306 306 306 306 306 307 307 307 307 306 306 307 308 309 309
204 207 209 211 211 212 217 221 226 232 236 242 247 251 255 259 263 266 270 274 279 284 288 291 293 294 294 295 296 298 301 303 305 306 307 307 307 307 307 308 308 307 307 308 308 309 310 310 311
Height
5842 5844 5847 5848 5850 5851 5852 5852 5853 5855 5857 5859 5861 5862 5863 5864 5864 5866 5864 5861 5861 5861 5860 5860 5859 5858 5858 5857 5856 5855 5855 5854 5854 5854 5854 5854 5853 5853 5853 5852 5852 5851 5850 5850 5849 5848 5847 5846 5844
5839 5841 5844 5845 5846 5847 5848 5848 5850 5853 5855 5856 5858 5859 5860 5860 5860 5860 5859 5859 5859 5859 5859 5858 5857 5857 5856 5855 5854 5853 5852 5851 5851 5851 5851 5851 5851 5851 5850 5850 5849 5849 5848 5847 5846 5845 5844 5843 5842
5836 5838 5840 5842 5843 5844 5844 5845 5848 5850 5852 5853 5854 5856 5857 5856 5856 5856 5856 5857 5857 5857 5857 5856 5856 5855 5854 5853 5852 5851 5850 5849 5849 5848 5848 5849 5849 5848 5848 5847 5847 5846 5845 5844 5843 5842 5841 5840 5839
5833 5835 5837 5839 5839 5840 5841 5843 5845 5847 5849 5850 5851 5852 5853 5852 5852 5853 5853 5854 5854 5854 5854 5854 5853 5852 5851 5850 5850 5849 5848 5848 5847 5846 5846 5846 5846 5845 5845 5844 5844 5843 5842 5840 5839 5839 5838 5837 5835
5828 5831 5833 5834 5835 5836 5837 5840 5842 5844 5846 5847 5848 5849 5848 5848 5848 5849 5850 5851 5852 5852 5852 5851 5851 5850 5849 5848 5848 5847 5846 5846 5845 5844 5843 5843 5843 5842 5842 5841 5840 5840 5839 5837 5836 5835 5834 5833 5831
5824 5826 5828 5829 5831 5832 5833 5836 5839 5841 5842 5843 5844 5844 5843 5844 5845 5846 5847 5848 5849 5849 5849 5849 5848 5847 5847 5846 5845 5845 5844 5843 5842 5841 5840 5840 5839 5838 5838 5837 5836 5835 5834 5833 5832 5830 5829 5828 5827
5818 5821 5822 5825 5826 5827 5829 5832 5835 5837 5838 5840 5840 5840 5839 5840 5841 5843 5844 5844 5845 5846 5847 5847 5846 5845 5844 5843 5843 5842 5841 5840 5839 5838 5837 5836 5835 5834 5834 5833 5832 5831 5830 5828 5827 5826 5824 5823 5822
5811 5815 5817 5819 5820 5822 5825 5828 5831 5833 5834 5836 5836 5836 5836 5837 5838 5839 5840 5841 5842 5843 5844 5844 5844 5843 5842 5841 5840 5838 5837 5836 5835 5834 5834 5832 5832 5831 5829 5828 5827 5826 5825 5824 5823 5821 5819 5817 5816
5804 5809 5812 5815 5815 5817 5821 5824 5827 5829 5830 5831 5831 5832 5833 5833 5834 5835 5836 5837 5839 5841 5842 5842 5841 5840 5839 5838 5836 5835 5834 5832 5831 5830 5829 5828 5827 5826 5825 5824 5823 5822 5820 5819 5817 5815 5813 5811 5809
5796 5802 5808 5810 5810 5813 5816 5820 5823 5825 5826 5827 5827 5828 5829 5830 5830 5831 5833 5834 5836 5838 5838 5838 5838 5837 5836 5834 5833 5831 5830 5828 5826 5825 5824 5823 5822 5821 5820 5819 5818 5816 5815 5813 5811 5809 5806 5804 5802
5789 5797 5803 5803 5804 5808 5811 5815 5818 5820 5822 5823 5823 5824 5824 5825 5827 5828 5829 5831 5832 5833 5834 5834 5834 5833 5832 5831 5829 5827 5826 5824 5822 5820 5819 5818 5817 5816 5815 5814 5812 5810 5808 5806 5804 5801 5798 5795 5793
5784 5792 5795 5797 5798 5802 5806 5810 5814 5817 5818 5817 5818 5819 5820 5822 5823 5825 5826 5827 5828 5829 5830 5830 5830 5830 5828 5827 5825 5824 5822 5820 5818 5816 5815 5814 5813 5812 5810 5808 5806 5803 5801 5798 5795 5792 5789 5786 5783
5777 5785 5788 5790 5792 5797 5801 5805 5810 5812 5810 5812 5814 5816 5817 5819 5820 5822 5823 5824 5824 5825 5826 5827 5826 5826 5824 5823 5821 5819 5818 5816 5814 5813 5811 5809 5808 5806 5804 5801 5798 5796 5793 5790 5786 5783 5780 5777 5774
5771 5777 5779 5782 5786 5792 5796 5801 5805 5805 5806 5809 5810 5812 5814 5815 5817 5818 5819 5820 5821 5822 5822 5823 5822 5821 5819 5817 5816 5815 5813 5812 5810 5808 5807 5804 5802 5799 5797 5794 5790 5787 5784 5781 5777 5774 5771 5769 5766
5762 5767 5771 5776 5781 5786 5792 5797 5799 5799 5802 5804 5806 5808 5809 5811 5812 5814 5815 5816 5817 5817 5818 5818 5817 5816 5814 5812 5811 5810 5809 5807 5805 5803 5801 5798 5796 5792 5789 5786 5782 5779 5776 5773 5770 5767 5765 5762 5759
5752 5757 5763 5772 5776 5781 5787 5793 5791 5794 5797 5800 5802 5804 5805 5807 5808 5810 5811 5812 5812 5813 5813 5812 5811 5810 5808 5807 5806 5804 5803 5801 5799 5797 5794 5792 5789 5785 5782 5779 5775 5772 5768 5765 5762 5759 5757 5754 5751
5740 5748 5759 5767 5771 5775 5781 5787 5784 5789 5793 5796 5799 5800 5801 5803 5804 5805 5806 5807 5807 5807 5807 5806 5805 5804 5803 5801 5800 5798 5797 5795 5793 5790 5787 5784 5781 5778 5775 5772 5768 5765 5761 5758 5755 5751 5748 5745 5742
5734 5745 5755 5761 5765 5770 5775 5781 5780 5784 5789 5792 5794 5795 5797 5798 5800 5801 5802 5802 5802 5802 5801 5800 5799 5798 5796 5795 5794 5792 5791 5789 5786 5783 5780 5776 5773 5770 5767 5764 5761 5758 5754 5751 5747 5744 5740 5736 5733
5732 5743 5750 5755 5758 5764 5770 5775 5777 5779 5785 5787 5789 5790 5792 5793 5795 5796 5796 5796 5796 5796 5795 5794 5793 5792 5790 5789 5788 5786 5784 5782 5779 5775 5772 5769 5766 5763 5760 5756 5753 5749 5746 5742 5738 5735 5731 5726 5721
5726 5735 5743 5747 5751 5759 5765 5770 5773 5775 5780 5782 5784 5785 5787 5789 5790 5791 5791 5790 5790 5790 5789 5788 5787 5786 5785 5783 5782 5780 5778 5775 5772 5768 5765 5761 5758 5755 5751 5748 5744 5740 5736 5732 5728 5724 5720 5716 5710
5720 5730 5737 5742 5748 5754 5761 5766 5768 5771 5774 5777 5779 5781 5782 5784 5785 5786 5785 5785 5784 5784 5783 5782 5781 5780 5779 5777 5775 5773 5770 5767 5764 5761 5758 5754 5751 5747 5743 5739 5736 5732 5727 5723 5719 5714 5709 5704 5698
5717 5726 5731 5736 5743 5749 5756 5761 5764 5766 5769 5772 5774 5776 5778 5779 5780 5780 5779 5779 5779 5778 5778 5777 5776 5775 5773 5771 5768 5766 5763 5760 5757 5754 5750 5746 5743 5739 5735 5731 5726 5722 5718 5713 5707 5702 5695 5689 5683
5714 5720 5726 5731 5738 5745 5751 5755 5760 5760 5763 5766 5769 5771 5773 5774 5775 5774 5774 5773 5773 5773 5773 5772 5771 5769 5766 5764 5761 5758 5756 5752 5749 5745 5742 5738 5734 5730 5726 5721 5717 5712 5706 5700 5694 5687 5680 5673 5665
5707 5714 5720 5726 5733 5741 5746 5750 5755 5755 5757 5760 5763 5765 5767 5768 5769 5768 5768 5768 5768 5767 5767 5766 5765 5763 5760 5757 5754 5751 5748 5745 5741 5737 5734 5730 5725 5721 5716 5711 5706 5700 5694 5687 5680 5672 5664 5656 5647
5699 5708 5716 5721 5728 5736 5740 5744 5749 5749 5752 5755 5757 5759 5761 5762 5763 5762 5762 5762 5762 5761 5761 5760 5758 5756 5753 5750 5747 5744 5740 5737 5733 5729 5725 5720 5716 5711 5706 5700 5694 5688 5680 5673 5664 5656 5647 5638 5629
5696 5705 5713 5719 5725 5732 5736 5739 5743 5745 5747 5749 5752 5754 5755 5756 5756 5756 5756 5755 5755 5754 5753 5752 5750 5748 5745 5742 5739 5736 5732 5728 5724 5720 5716 5711 5706 5700 5695 5688 5681 5673 5665 5657 5648 5639 5629 5619 5609
5694 5700 5708 5716 5722 5727 5731 5735 5738 5740 5741 5744 5746 5748 5749 5750 5750 5750 5749 5749 5748 5747 5746 5745 5742 5740 5737 5734 5731 5727 5723 5719 5715 5711 5706 5700 5695 5688 5681 5674 5666 5658 5649 5640 5630 5620 5610 5599 5587
5691 5698 5705 5711 5717 5722 5727 5730 5732 5734 5736 5738 5741 5742 5743 5744 5743 5743 5742 5742 5741 5739 5738 5737 5734 5732 5729 5726 5722 5718 5714 5710 5705 5700 5695 5688 5681 5674 5666 5658 5649 5640 5631 5621 5611 5600 5589 5578 5565
5689 5695 5700 5707 5713 5719 5723 5727 5727 5729 5731 5733 5735 5736 5736 5737 5736 5736 5735 5734 5733 5732 5731 5729 5726 5723 5720 5717 5713 5709 5705 5700 5694 5688 5682 5674 5667 5659 5650 5641 5632 5622 5612 5602 5591 5580 5568 5556 5543
5686 5692 5698 5704 5709 5714 5718 5724 5722 5724 5726 5727 5728 5729 5729 5730 5729 5729 5728 5728 5726 5725 5723 5720 5718 5715 5712 5708 5704 5699 5694 5688 5682 5675 5668 5660 5651 5643 5633 5623 5613 5603 5593 5582 5571 5560 5547 5534 5520